Murray, KY

8:12 AM CST on December 07, 2019 (GMT -0600)
Kyle-Oakley

Weather History for KCEY - October, 2019

Change the Weather History Date:

Tuesday, October 22, 2019

  Actual Average (KPAH) Record (KPAH)
Temperature  
Mean Temperature 55 °F 57 °F  
Max Temperature 62 °F 69 °F 88 °F (1953)
Min Temperature 48 °F 45 °F 23 °F (1952)
Degree Days  
Heating Degree Days 10 9  
Month to date heating degree days 138  
Since 1 July heating degree days 177  
Cooling Degree Days 0 1  
Month to date cooling degree days 33  
Year to date cooling degree days 1533  
Growing Degree Days 5 (Base 50)    
Moisture  
Dew Point 45 °F    
Average Humidity 78    
Maximum Humidity 100    
Minimum Humidity 42    
Precipitation  
Precipitation 0.00 in 0.12 in 1.45 in (1950)
Month to date precipitation 2.86  
Year to date precipitation 39.09  
Snow  
Snow 0.00 in 0.00 in 0.00 in (2002)
Month to date snowfall 0.0  
Since 1 July snowfall 0.0  
Since 1 September snowfall 0.0  
Snow Depth -    
Sea Level Pressure  
Sea Level Pressure 29.92 in    
Wind  
Wind Speed 9 mph (SW)    
Max Wind Speed 16 mph    
Max Gust Speed 24 mph    
Visibility 10 miles    
Events      
T = Trace of Precipitation, MM = Missing Value Source: NWS Daily Summary

Daily Weather History Graph

Daily Weather History Graph

Search for Another Location

Airport or City:

Astronomy

Oct. 22, 2019 Rise Set
Actual Time 7:07 AM CDT 6:08 PM CDT
Civil Twilight 6:40 AM CDT 6:34 PM CDT
Nautical Twilight 6:10 AM CDT 7:04 PM CDT
Astronomical Twilight 5:40 AM CDT 7:34 PM CDT
Moon 12:29 AM CDT (10/22) 3:05 PM CDT (10/22)
Length of Visible Light 11h 53m
Length of Day
11h 01m
Last Quarter, 37% of the Moon is Illuminated
Oct 22
Last Quarter
Oct 27
New
Nov 4
First Quarter
Nov 12
Full
Nov 19
Last Quarter

Hourly Weather History & Observations

Time (CDT) Temp. Dew Point Humidity Pressure Visibility Wind Dir Wind Speed Gust Speed Precip Events Conditions
12:15 AM 55.4 °F 55.4 °F 100% 29.87 in 10.0 mi WSW 9.2 mph - N/A   Clear
12:55 AM 53.6 °F 53.6 °F 100% 29.86 in 10.0 mi SW 6.9 mph - N/A   Clear
1:15 AM 53.6 °F 53.6 °F 100% 29.86 in 10.0 mi SSW 5.8 mph - N/A   Clear
1:35 AM 53.6 °F 51.8 °F 94% 29.86 in 10.0 mi South 5.8 mph - N/A   Unknown
1:55 AM 53.6 °F 48.2 °F 82% 29.86 in 10.0 mi SSW 8.1 mph - N/A   Clear
2:15 AM 53.6 °F 48.2 °F 82% 29.87 in 10.0 mi SW 10.4 mph - N/A   Partly Cloudy
2:35 AM 53.6 °F 48.2 °F 82% 29.87 in 10.0 mi SW 11.5 mph - N/A   Scattered Clouds
2:55 AM 53.6 °F 48.2 °F 82% 29.87 in 10.0 mi SW 9.2 mph - N/A   Mostly Cloudy
3:15 AM 51.8 °F 48.2 °F 88% 29.88 in 10.0 mi SW 9.2 mph - N/A   Scattered Clouds
3:35 AM 51.8 °F 48.2 °F 88% 29.87 in 10.0 mi SW 10.4 mph 16.1 mph N/A   Scattered Clouds
3:55 AM 50.0 °F 46.4 °F 87% 29.87 in 10.0 mi SSW 8.1 mph - N/A   Unknown
4:15 AM 50.0 °F 46.4 °F 87% 29.87 in 10.0 mi SW 8.1 mph - N/A   Unknown
4:35 AM 48.2 °F 46.4 °F 93% 29.89 in 10.0 mi SW 9.2 mph - N/A   Unknown
4:55 AM 48.2 °F 46.4 °F 93% 29.88 in 10.0 mi SW 11.5 mph - N/A   Clear
5:15 AM 48.2 °F 44.6 °F 87% 29.89 in 10.0 mi SSW 9.2 mph - N/A   Clear
5:35 AM 50.0 °F 44.6 °F 82% 29.90 in 10.0 mi SSW 9.2 mph - N/A   Clear
5:55 AM 48.2 °F 44.6 °F 87% 29.91 in 10.0 mi SW 9.2 mph - N/A   Clear
6:15 AM 48.2 °F 44.6 °F 87% 29.91 in 10.0 mi SW 8.1 mph - N/A   Clear
6:35 AM 48.2 °F 44.6 °F 87% 29.92 in 10.0 mi SSW 8.1 mph - N/A   Clear
6:55 AM 48.2 °F 44.6 °F 87% 29.92 in 10.0 mi SW 9.2 mph - N/A   Clear
7:35 AM 48.2 °F 42.8 °F 82% 29.93 in 10.0 mi SSW 9.2 mph - N/A   Clear
7:55 AM 48.2 °F 42.8 °F 82% 29.94 in 10.0 mi SW 10.4 mph - N/A   Clear
8:15 AM 50.0 °F 42.8 °F 76% 29.95 in 10.0 mi SW 10.4 mph 16.1 mph N/A   Clear
8:35 AM 51.8 °F 42.8 °F 71% 29.96 in 10.0 mi SW 13.8 mph - N/A   Clear
8:55 AM 53.6 °F 41.0 °F 62% 29.97 in 10.0 mi WSW 13.8 mph - N/A   Clear
9:15 AM 53.6 °F 41.0 °F 62% 29.97 in 10.0 mi WSW 11.5 mph 21.9 mph N/A   Clear
12:35 PM 60.8 °F 41.0 °F 48% 29.98 in 10.0 mi WSW 13.8 mph 21.9 mph N/A   Clear
12:55 PM 62.6 °F 39.2 °F 42% 29.97 in 10.0 mi WSW 13.8 mph 24.2 mph N/A   Clear
1:15 PM 62.6 °F 39.2 °F 42% 29.96 in 10.0 mi SSW 16.1 mph 21.9 mph N/A   Clear
1:35 PM 62.6 °F 39.2 °F 42% 29.97 in 10.0 mi WSW 16.1 mph - N/A   Clear
9:55 PM 50.0 °F 35.6 °F 58% 30.06 in 10.0 mi SW 9.2 mph - N/A   Mostly Cloudy
10:15 PM 50.0 °F 37.4 °F 62% 30.06 in 10.0 mi WSW 6.9 mph - N/A   Overcast